When you browse on this site, cookies collect data to enhance your experience and personalize the content and advertising you see.
Visit our Privacy Policy to learn more. By continuing to use the site, you agree to this use of cookies and data.
  • în România
  • Lista ţărilor
  • Pe 7 zile
  • Temperatura apei
  • Hartă satelitară
  • Meteo pe hartă
  • Widget-uri
  • user-avatar
    Intrare

    Meteo pe oră la Asciano

    Astăzi, 18 Iulie, Joi

    Timp Temperatura Precipitaţii Vânt Presiune Umiditate
    00:00 +17°C° 0 mm 0 m/s 738 mmHg 59%
    01:00 +17°C° 0 mm 0 m/s 738 mmHg 60%
    02:00 +17°C° 0 mm 0 m/s 738 mmHg 61%
    03:00 +16°C° 0 mm 0 m/s 737 mmHg 62%
    04:00 +16°C° 0 mm 0 m/s 737 mmHg 62%
    05:00 +17°C° 0 mm 0 m/s 737 mmHg 59%
    06:00 +19°C° 0 mm 0 m/s 738 mmHg 56%
    07:00 +23°C° 0 mm 1 m/s 738 mmHg 51%
    08:00 +25°C° 0 mm 1 m/s 739 mmHg 45%
    09:00 +27°C° 0 mm 1 m/s 739 mmHg 39%
    10:00 +30°C° 0 mm 1 m/s 739 mmHg 34%
    11:00 +31°C° 0 mm 1 m/s 739 mmHg 32%
    12:00 +32°C° 0 mm 1 m/s 739 mmHg 30%
    13:00 +32°C° 0 mm 2 m/s 739 mmHg 28%
    14:00 +32°C° 0 mm 2 m/s 739 mmHg 30%
    15:00 +33°C° 0 mm 3 m/s 739 mmHg 32%
    16:00 +32°C° 0 mm 4 m/s 739 mmHg 33%
    17:00 +30°C° 0 mm 3 m/s 739 mmHg 39%
    18:00 +28°C° 0 mm 3 m/s 739 mmHg 44%
    19:00 +27°C° 0 mm 3 m/s 739 mmHg 49%
    20:00 +25°C° 0 mm 2 m/s 739 mmHg 54%
    21:00 +23°C° 0 mm 1 m/s 739 mmHg 59%
    22:00 +19°C° 0 mm 0 m/s 740 mmHg 63%
    23:00 +18°C° 0 mm 0 m/s 740 mmHg 65%

    Mâine, 19 Iulie, Vineri

    Timp Temperatura Precipitaţii Vânt Presiune Umiditate
    00:00 +18°C° 0 mm 0 m/s 740 mmHg 66%
    01:00 +17°C° 0 mm 0 m/s 740 mmHg 67%
    02:00 +17°C° 0 mm 0 m/s 740 mmHg 68%
    03:00 +17°C° 0 mm 0 m/s 740 mmHg 69%
    04:00 +16°C° 0 mm 0 m/s 740 mmHg 71%
    05:00 +18°C° 0 mm 0 m/s 740 mmHg 66%
    06:00 +19°C° 0 mm 0 m/s 741 mmHg 62%
    07:00 +21°C° 0 mm 0 m/s 741 mmHg 58%
    08:00 +24°C° 0 mm 0 m/s 741 mmHg 51%
    09:00 +26°C° 0 mm 0 m/s 742 mmHg 43%
    10:00 +29°C° 0 mm 0 m/s 742 mmHg 36%
    11:00 +32°C° 0 mm 1 m/s 742 mmHg 34%
    12:00 +33°C° 0 mm 1 m/s 742 mmHg 31%
    13:00 +34°C° 0 mm 2 m/s 742 mmHg 28%
    14:00 +34°C° 0 mm 2 m/s 742 mmHg 29%
    15:00 +34°C° 0 mm 3 m/s 742 mmHg 29%
    16:00 +34°C° 0 mm 4 m/s 742 mmHg 30%
    17:00 +31°C° 0 mm 3 m/s 742 mmHg 36%
    18:00 +29°C° 0 mm 3 m/s 742 mmHg 41%
    19:00 +27°C° 0 mm 3 m/s 742 mmHg 47%
    20:00 +25°C° 0 mm 2 m/s 742 mmHg 53%
    21:00 +23°C° 0 mm 1 m/s 742 mmHg 60%
    22:00 +19°C° 0 mm 0 m/s 742 mmHg 66%
    23:00 +19°C° 0 mm 0 m/s 742 mmHg 69%

    Poimâine, 20 Iulie, Sâmbătă

    Timp Temperatura Precipitaţii Vânt Presiune Umiditate
    00:00 +18°C° 0 mm 0 m/s 742 mmHg 72%
    01:00 +17°C° 0 mm 0 m/s 742 mmHg 75%
    02:00 +17°C° 0 mm 0 m/s 742 mmHg 75%
    03:00 +17°C° 0 mm 0 m/s 742 mmHg 76%
    04:00 +17°C° 0 mm 0 m/s 742 mmHg 76%
    05:00 +18°C° 0 mm 0 m/s 742 mmHg 71%
    06:00 +20°C° 0 mm 0 m/s 742 mmHg 65%
    07:00 +21°C° 0 mm 0 m/s 743 mmHg 59%
    08:00 +24°C° 0 mm 0 m/s 743 mmHg 51%
    09:00 +29°C° 0 mm 1 m/s 744 mmHg 42%
    10:00 +32°C° 0 mm 1 m/s 744 mmHg 34%
    11:00 +33°C° 0 mm 1 m/s 744 mmHg 31%
    12:00 +35°C° 0 mm 2 m/s 744 mmHg 28%
    13:00 +36°C° 0 mm 2 m/s 744 mmHg 24%
    14:00 +35°C° 0 mm 3 m/s 744 mmHg 25%
    15:00 +35°C° 0 mm 4 m/s 744 mmHg 26%
    16:00 +35°C° 0 mm 4 m/s 743 mmHg 27%
    17:00 +33°C° 0 mm 4 m/s 743 mmHg 33%
    18:00 +30°C° 0 mm 3 m/s 744 mmHg 39%
    19:00 +28°C° 0 mm 3 m/s 744 mmHg 45%
    20:00 +26°C° 0 mm 2 m/s 744 mmHg 51%
    21:00 +24°C° 0 mm 1 m/s 744 mmHg 57%
    22:00 +20°C° 0 mm 0 m/s 744 mmHg 62%
    23:00 +19°C° 0 mm 0 m/s 744 mmHg 64%

    21 Iulie, Duminică

    Timp Temperatura Precipitaţii Vânt Presiune Umiditate
    00:00 +19°C° 0 mm 0 m/s 744 mmHg 65%
    01:00 +18°C° 0 mm 0 m/s 744 mmHg 66%
    02:00 +18°C° 0 mm 0 m/s 744 mmHg 67%
    03:00 +18°C° 0 mm 0 m/s 744 mmHg 67%
    04:00 +17°C° 0 mm 0 m/s 744 mmHg 68%
    05:00 +19°C° 0 mm 0 m/s 744 mmHg 64%
    06:00 +20°C° 0 mm 0 m/s 744 mmHg 59%
    07:00 +22°C° 0 mm 0 m/s 745 mmHg 55%
    08:00 +25°C° 0 mm 0 m/s 745 mmHg 46%
    09:00 +28°C° 0 mm 0 m/s 746 mmHg 38%
    10:00 +32°C° 0 mm 1 m/s 746 mmHg 30%
    11:00 +34°C° 0 mm 1 m/s 746 mmHg 26%
    12:00 +35°C° 0 mm 1 m/s 746 mmHg 22%
    13:00 +37°C° 0 mm 2 m/s 746 mmHg 19%
    14:00 +37°C° 0 mm 2 m/s 745 mmHg 19%
    15:00 +37°C° 0 mm 3 m/s 745 mmHg 19%
    16:00 +37°C° 0 mm 3 m/s 745 mmHg 19%
    17:00 +35°C° 0 mm 3 m/s 745 mmHg 25%
    18:00 +31°C° 0 mm 2 m/s 745 mmHg 31%
    19:00 +29°C° 0 mm 2 m/s 745 mmHg 37%
    20:00 +27°C° 0 mm 2 m/s 745 mmHg 40%
    21:00 +25°C° 0 mm 1 m/s 745 mmHg 44%
    22:00 +21°C° 0 mm 0 m/s 745 mmHg 47%
    23:00 +20°C° 0 mm 0 m/s 745 mmHg 48%

    22 Iulie, Luni

    Timp Temperatura Precipitaţii Vânt Presiune Umiditate
    00:00 +20°C° 0 mm 0 m/s 745 mmHg 50%
    01:00 +19°C° 0 mm 0 m/s 745 mmHg 51%
    02:00 +19°C° 0 mm 0 m/s 745 mmHg 52%
    03:00 +18°C° 0 mm 0 m/s 745 mmHg 54%
    04:00 +18°C° 0 mm 0 m/s 744 mmHg 56%
    05:00 +20°C° 0 mm 0 m/s 745 mmHg 54%
    06:00 +21°C° 0 mm 0 m/s 745 mmHg 52%
    07:00 +23°C° 0 mm 0 m/s 745 mmHg 50%
    08:00 +28°C° 0 mm 1 m/s 745 mmHg 44%
    09:00 +31°C° 0 mm 1 m/s 746 mmHg 38%
    10:00 +34°C° 0 mm 1 m/s 746 mmHg 32%
    11:00 +35°C° 0 mm 1 m/s 746 mmHg 29%
    12:00 +37°C° 0 mm 1 m/s 746 mmHg 25%
    13:00 +39°C° 0 mm 1 m/s 746 mmHg 21%
    14:00 +39°C° 0 mm 1 m/s 745 mmHg 22%
    15:00 +39°C° 0 mm 2 m/s 745 mmHg 22%
    16:00 +39°C° 0 mm 2 m/s 745 mmHg 23%
    17:00 +37°C° 0 mm 2 m/s 744 mmHg 29%
    18:00 +34°C° 0 mm 2 m/s 744 mmHg 35%
    19:00 +31°C° 0 mm 2 m/s 744 mmHg 41%
    20:00 +29°C° 0 mm 1 m/s 744 mmHg 45%
    21:00 +28°C° 0 mm 1 m/s 744 mmHg 48%
    22:00 +26°C° 0 mm 1 m/s 744 mmHg 52%
    23:00 +25°C° 0 mm 1 m/s 744 mmHg 56%

    23 Iulie, Marţi

    Timp Temperatura Precipitaţii Vânt Presiune Umiditate
    00:00 +25°C° 0 mm 1 m/s 744 mmHg 60%
    01:00 +24°C° 0 mm 1 m/s 744 mmHg 64%
    02:00 +23°C° 0 mm 1 m/s 743 mmHg 66%
    03:00 +23°C° 0 mm 1 m/s 743 mmHg 67%
    04:00 +22°C° 0 mm 1 m/s 743 mmHg 69%
    05:00 +24°C° 0 mm 1 m/s 743 mmHg 64%
    06:00 +25°C° 0 mm 1 m/s 743 mmHg 59%
    07:00 +27°C° 0 mm 1 m/s 743 mmHg 54%
    08:00 +29°C° 0 mm 2 m/s 743 mmHg 48%
    09:00 +32°C° 0 mm 2 m/s 743 mmHg 41%
    10:00 +36°C° 0 mm 3 m/s 744 mmHg 35%
    11:00 +37°C° 0 mm 4 m/s 744 mmHg 32%
    12:00 +38°C° 0 mm 4 m/s 743 mmHg 28%
    13:00 +41°C° 0 mm 4 m/s 743 mmHg 25%
    14:00 +40°C° 0 mm 4 m/s 743 mmHg 25%
    15:00 +40°C° 0 mm 4 m/s 742 mmHg 26%
    16:00 +40°C° 0 mm 4 m/s 742 mmHg 26%
    17:00 +37°C° 0 mm 3 m/s 742 mmHg 32%
    18:00 +35°C° 0 mm 3 m/s 742 mmHg 37%
    19:00 +32°C° 0 mm 2 m/s 741 mmHg 43%
    20:00 +30°C° 0 mm 1 m/s 741 mmHg 49%
    21:00 +28°C° 0 mm 1 m/s 741 mmHg 55%
    22:00 +26°C° 0 mm 1 m/s 741 mmHg 60%
    23:00 +25°C° 0 mm 1 m/s 741 mmHg 63%
    Arată mai mult